This is the latest recevied weather packets stored in our database for station/object K3PPP. If no packets are shown the sender has not sent any weather packets the latest 10 day(s).
| Time | Temp. | Humidity | Pressure | Rain* | Wind** | Luminosity | Snow |
|---|---|---|---|---|---|---|---|
| 1777556033 | 6.67° C | 85% | 1010.6 hPa | 0 mm | - | 70 W/m² | - |
| 1777555728 | 7.78° C | 82% | 1010.6 hPa | 0 mm | - | 168 W/m² | - |
| 1777555425 | 7.22° C | 84% | 1010.6 hPa | 0 mm | - | 489 W/m² | - |
| 1777555121 | 7.78° C | 87% | 1010.3 hPa | 0 mm | - | 485 W/m² | - |
| 1777554819 | 7.78° C | 86% | 1010.4 hPa | 0 mm | - | 204 W/m² | - |
| 1777554515 | 7.22° C | 87% | 1010.3 hPa | 0 mm | - | 442 W/m² | - |
| 1777554212 | 7.22° C | 90% | 1010.1 hPa | 0 mm | - | 359 W/m² | - |
| 1777553909 | 6.67° C | 90% | 1010.2 hPa | 0 mm | - | 109 W/m² | - |
| 1777553606 | 6.67° C | 91% | 1010.3 hPa | 0 mm | - | 102 W/m² | - |
| 1777553302 | 6.67° C | 90% | 1010.1 hPa | 0 mm | - | 107 W/m² | - |
| 1777552998 | 6.11° C | 91% | 1010.1 hPa | 0 mm | - | 236 W/m² | - |
| 1777552698 | 6.11° C | 92% | 1010.2 hPa | 0 mm | - | 135 W/m² | - |
| 1777552395 | 6.67° C | 92% | 1010.1 hPa | 0 mm | - | 142 W/m² | - |
| 1777552091 | 6.11° C | 93% | 1010.1 hPa | 0 mm | - | 139 W/m² | - |
| 1777551788 | 6.11° C | 95% | 1010.4 hPa | 0 mm | - | 138 W/m² | - |
| 1777551486 | 6.11° C | 95% | 1010.1 hPa | 0 mm | - | 68 W/m² | - |
| 1777551182 | 6.11° C | 96% | 1010.1 hPa | 0 mm | - | 45 W/m² | - |
| 1777550880 | 6.11° C | 96% | 1009.8 hPa | 0 mm | - | 107 W/m² | - |
| 1777550576 | 6.11° C | 96% | 1010.1 hPa | 0 mm | - | 36 W/m² | - |
| 1777550271 | 6.11° C | 96% | 1010 hPa | 0 mm | - | 88 W/m² | - |
| 1777549969 | 6.11° C | 96% | 1010.1 hPa | 0 mm | - | 39 W/m² | - |
| 1777549665 | 6.11° C | 96% | 1009.8 hPa | 0 mm | - | 62 W/m² | - |
| 1777549360 | 5.56° C | 96% | 1009.8 hPa | 0 mm | - | 63 W/m² | - |
| 1777549058 | 5.56° C | 97% | 1009.8 hPa | 0 mm | - | 49 W/m² | - |
| 1777548754 | 6.11° C | 97% | 1009.8 hPa | 0 mm | - | 35 W/m² | - |
* Rain latest hour (hover to see other rain measurements)
** Current wind speed in m/s (hover to see current wind gust speed)